Flag for Austria Weather past 2 weeks in Kirchdorf an der Krems, Upper Austria, Austria

Now
60 °F

Overcast.


Feels Like: 60 °F
Forecast: 48 / 75 °F
Wind: 2 mph from West

Location: Kremsmuenster

Current Time: Apr 26, 2015 at 12:27:36 PM

Latest Report: Apr 26, 2015 at 11:00 AM


Visibility: 28 mi

Pressure: 29.88 "Hg

Humidity: 65%

Dew point: 48 °F

Location of Kirchdorf an der KremsLocation

Historic Weather in Kirchdorf an der Krems — Graph

°F

Kirchdorf an der Krems temperature yesterday

Maximum temperature yesterday: 74 °F (at 4:00 PM)
Minimum temperature yesterday: 41 °F (at 7:00 AM)
Average temperature yesterday: 57 °F

Past Weeks' High & Low Weather Summary

 TemperatureHumidityPressure
High74 °F (Apr 15, 5:00 PM)96% (Apr 24, 12:00 AM)30.46 "Hg (Apr 24, 12:00 AM)
Low35 °F (Apr 19, 6:00 AM)22% (Apr 16, 3:00 PM)29.78 "Hg (Apr 25, 5:00 PM)
Average55 °F60%30.14 "Hg
* Reported Apr 11 11:00 AM — Apr 26 11:00 AM, Kirchdorf an der Krems, Weather by CustomWeather, © 2015

Note: Actual official high and low records may vary slightly from our data, if they occured in-between our weather recording intervals... More about our weather records

Advertising

Kirchdorf an der Krems weather history for previous 24 hours

 ConditionsComfort  
Time TempWeatherWind HumidityBarometerVisibility
11:00 AM
Sun, Apr 26
60 °FOvercast.2 mph65%29.88 "Hg28 mi
10:00 AM58 °FCool.3 mph70%29.89 "HgN/A
9:00 AM56 °FCool.2 mph78%29.90 "HgN/A
8:00 AM56 °FOvercast.2 mph81%29.90 "Hg22 mi
7:00 AM55 °FOvercast.2 mph82%29.90 "Hg4 mi
6:00 AM55 °FCool.3 mph81%29.89 "HgN/A
4:00 AM56 °FCool.3 mph80%29.87 "HgN/A
3:00 AM56 °FCool.2 mph78%29.88 "HgN/A
2:00 AM57 °FFog.3 mph74%29.89 "HgN/A
1:00 AM59 °FCool.7 mph68%29.88 "HgN/A
12:00 AM61 °FRefreshingly cool.7 mph57%29.87 "HgN/A
11:00 PM
Sat, Apr 25
62 °FRefreshingly cool.5 mph55%29.85 "HgN/A
10:00 PMN/APassing clouds.5 mphN/AN/A9 mi
9:00 PM64 °FMild.5 mph48%29.83 "HgN/A
8:00 PM66 °FOvercast.5 mph42%29.81 "Hg25 mi
7:00 PM68 °FMild.2 mph38%29.80 "HgN/A
6:00 PM70 °FMild.3 mph32%29.79 "HgN/A
5:00 PM72 °FOvercast.2 mph28%29.78 "Hg12 mi
4:00 PM74 °FMild.2 mph31%29.79 "HgN/A
3:00 PM72 °FMild.2 mph38%29.81 "HgN/A
2:00 PM69 °FMild.1 mph49%29.84 "HgN/A
1:00 PM67 °FMild.3 mph53%29.86 "HgN/A
12:00 PM63 °FMild.1 mph59%29.89 "HgN/A
Weather by CustomWeather, © 2015

See weather overviewHow to use our weather pages